Location: Moscow
(55.7500°N, 37.5830°E)
Time: 02:05:33
(UTC+03:00)

Tiros 1 - Visible Passes

Search period start: 30 November 2021 00:00
Search period end: 10 December 2021 00:00
Orbit: 630 x 664 km, 48.4° (Epoch: 29 November)

Date Brightness Start Highest point End Pass type
(mag) Time Alt. Az. Time Alt. Az. Time Alt. Az.
04 Dec 9.4 18:34:33 10° SSE 18:35:50 12° SSE 18:35:50 12° SSE visible
05 Dec 9.0 18:58:28 10° SSW 19:00:46 18° S 19:00:46 18° S visible
06 Dec 9.4 17:44:38 10° SSE 17:46:09 11° SE 17:47:42 10° ESE visible
06 Dec 9.0 19:23:20 10° SW 19:25:39 22° SSW 19:25:39 22° SSW visible
07 Dec 8.9 18:08:17 10° SSW 18:11:29 18° SSE 18:12:50 16° SE visible
07 Dec 9.2 19:48:38 10° SW 19:50:29 21° SW 19:50:29 21° SW visible
08 Dec 9.5 16:54:49 10° SSE 16:55:53 11° SE 16:56:57 10° SE visible
08 Dec 8.5 18:33:06 10° SW 18:36:55 26° SSE 18:37:38 25° SE visible
08 Dec 9.6 20:14:11 10° WSW 20:15:17 16° WSW 20:15:17 16° WSW visible
09 Dec 9.1 17:18:08 10° SSW 17:21:12 18° SSE 17:24:16 10° ESE visible
09 Dec 8.3 18:58:21 10° SW 19:02:26 31° S 19:02:26 31° S visible
09 Dec 10.1 20:39:51 10° WSW 20:40:05 11° WSW 20:40:05 11° WSW visible
